| time (UTC) | temp F | wind direction | speed MPH | gust MPH | rain 1hr in | rain 24hr in | rain mn in | humidity % | barometer mb |
| 20260901163137 | 89 | 246 | 1.0 | 7.0 | 0.00 | 0.00 | 0.00 | 65 | 1017.5 |
| 20260901162119 | 88 | 5 | 1.0 | 7.0 | 0.00 | 0.00 | 0.00 | 65 | 1017.6 |
| 20260901161127 | 88 | 150 | 0.0 | 4.0 | 0.00 | 0.00 | 0.00 | 70 | 1017.6 |
| 20260901160121 | 88 | 264 | 0.0 | 2.0 | 0.00 | 0.00 | 0.00 | 70 | 1017.6 |
| 20260901155055 | 87 | 311 | 0.0 | 5.0 | 0.00 | 0.00 | 0.00 | 67 | 1017.6 |
| 20260901154034 | 87 | 294 | 0.0 | 7.0 | 0.00 | 0.00 | 0.00 | 71 | 1017.5 |
| 20260901153058 | 86 | 300 | 1.0 | 7.0 | 0.00 | 0.00 | 0.00 | 69 | 1017.6 |
| 20260901152118 | 86 | 289 | 1.0 | 5.0 | 0.00 | 0.00 | 0.00 | 69 | 1017.5 |
| 20260901151051 | 86 | 279 | 0.0 | 5.0 | 0.00 | 0.00 | 0.00 | 75 | 1017.5 |
| 20260901150045 | 85 | 296 | 1.0 | 0.0 | 0.00 | 0.00 | 0.00 | 73 | 1017.5 |
| 20260901145029 | 85 | 202 | 0.0 | 6.0 | 0.00 | 0.00 | 0.00 | 75 | 1017.6 |
| 20260901144008 | 84 | 317 | 0.0 | 0.0 | 0.00 | 0.00 | 0.00 | 74 | 1017.6 |
| 20260901143015 | 83 | 232 | 0.0 | 3.0 | 0.00 | 0.00 | 0.00 | 76 | 1017.7 |
| 20260901141946 | 82 | 292 | 0.0 | 2.0 | 0.00 | 0.00 | 0.00 | 76 | 1017.7 |
| 20260901140933 | 81 | 259 | 0.0 | 2.0 | 0.00 | 0.00 | 0.00 | 80 | 1017.8 |
| 20260901135953 | 80 | 231 | 0.0 | 0.0 | 0.00 | 0.00 | 0.00 | 83 | 1017.7 |
| 20260901134931 | 78 | 154 | 0.0 | 3.0 | 0.00 | 0.00 | 0.00 | 86 | 1017.8 |
| 20260901132724 | 74 | 200 | 0.0 | 3.0 | 0.00 | 0.00 | 0.00 | 92 | 1017.8 |
| 20260901130516 | 71 | 231 | 0.0 | 0.0 | 0.00 | 0.00 | 0.00 | 98 | 1017.8 |
| 20260901125453 | 71 | 231 | 0.0 | 0.0 | 0.00 | 0.00 | 0.00 | 98 | 1017.8 |
| 20260901124440 | 70 | 231 | 0.0 | 1.0 | 0.00 | 0.00 | 0.00 | 98 | 1017.7 |
| 20260901123433 | 69 | 231 | 0.0 | 0.0 | 0.00 | 0.00 | 0.00 | 98 | 1017.5 |
| 20260901122436 | 68 | 231 | 0.0 | 0.0 | 0.00 | 0.00 | 0.00 | 98 | 1017.3 |
| 20260901121406 | 68 | 231 | 0.0 | 0.0 | 0.00 | 0.00 | 0.00 | 98 | 1017.3 |
| 20260901120423 | 67 | 231 | 0.0 | 0.0 | 0.00 | 0.00 | 0.00 | 98 | 1017.1 |
| 20260901114309 | 67 | 231 | 0.0 | 0.0 | 0.00 | 0.00 | 0.00 | 97 | 1016.8 |
| 20260901113300 | 67 | 231 | 0.0 | 0.0 | 0.00 | 0.00 | 0.00 | 97 | 1016.7 |
| 20260901112307 | 67 | 231 | 0.0 | 0.0 | 0.00 | 0.00 | 0.00 | 97 | 1016.6 |
| 20260901111254 | 67 | 231 | 0.0 | 0.0 | 0.00 | 0.00 | 0.00 | 96 | 1016.6 |
| 20260901110259 | 67 | 231 | 0.0 | 0.0 | 0.00 | 0.00 | 0.00 | 96 | 1016.6 |
| 20260901105256 | 67 | 231 | 0.0 | 0.0 | 0.00 | 0.00 | 0.00 | 96 | 1016.5 |
| 20260901103159 | 67 | 231 | 0.0 | 0.0 | 0.00 | 0.00 | 0.00 | 96 | 1016.4 |
| 20260901102222 | 67 | 231 | 0.0 | 0.0 | 0.00 | 0.00 | 0.00 | 96 | 1016.5 |
| 20260901101153 | 67 | 231 | 0.0 | 0.0 | 0.00 | 0.00 | 0.00 | 95 | 1016.4 |
| 20260901095010 | 67 | 231 | 0.0 | 0.0 | 0.00 | 0.00 | 0.00 | 95 | 1016.4 |
| 20260901093939 | 67 | 231 | 0.0 | 0.0 | 0.00 | 0.00 | 0.00 | 95 | 1016.4 |
| 20260901091826 | 67 | 231 | 0.0 | 0.0 | 0.00 | 0.00 | 0.00 | 95 | 1016.2 |
| 20260901090831 | 68 | 231 | 0.0 | 0.0 | 0.00 | 0.00 | 0.00 | 94 | 1016.1 |
| 20260901085847 | 68 | 231 | 0.0 | 0.0 | 0.00 | 0.00 | 0.00 | 94 | 1016.1 |
| 20260901084829 | 68 | 231 | 0.0 | 0.0 | 0.00 | 0.00 | 0.00 | 94 | 1016.1 |
| 20260901083852 | 68 | 231 | 0.0 | 0.0 | 0.00 | 0.00 | 0.00 | 94 | 1016.1 |
| 20260901082903 | 68 | 231 | 0.0 | 0.0 | 0.00 | 0.00 | 0.00 | 94 | 1016.1 |
| 20260901081846 | 68 | 231 | 0.0 | 0.0 | 0.00 | 0.00 | 0.00 | 93 | 1016.0 |
| 20260901080909 | 68 | 231 | 0.0 | 0.0 | 0.00 | 0.00 | 0.00 | 93 | 1016.0 |
| 20260901074801 | 69 | 231 | 0.0 | 0.0 | 0.00 | 0.00 | 0.00 | 93 | 1016.0 |
| 20260901071524 | 69 | 231 | 0.0 | 0.0 | 0.00 | 0.00 | 0.00 | 92 | 1015.9 |
| 20260901070532 | 69 | 231 | 0.0 | 0.0 | 0.00 | 0.00 | 0.00 | 91 | 1015.9 |
| 20260901063248 | 70 | 231 | 0.0 | 0.0 | 0.00 | 0.00 | 0.00 | 91 | 1016.1 |
| 20260901062214 | 70 | 231 | 0.0 | 0.0 | 0.00 | 0.00 | 0.00 | 91 | 1016.1 |
| 20260901060101 | 70 | 231 | 0.0 | 0.0 | 0.00 | 0.00 | 0.00 | 91 | 1015.9 |
| 20260901055036 | 70 | 231 | 0.0 | 0.0 | 0.00 | 0.00 | 0.00 | 90 | 1015.9 |
| 20260901054058 | 70 | 231 | 0.0 | 0.0 | 0.00 | 0.00 | 0.00 | 90 | 1015.9 |
| 20260901053117 | 70 | 231 | 0.0 | 0.0 | 0.00 | 0.00 | 0.00 | 90 | 1015.9 |
| 20260901052051 | 71 | 231 | 0.0 | 0.0 | 0.00 | 0.00 | 0.00 | 90 | 1015.8 |
| 20260901051112 | 71 | 231 | 0.0 | 0.0 | 0.00 | 0.00 | 0.00 | 90 | 1015.7 |
| 20260901050045 | 71 | 231 | 0.0 | 0.0 | 0.00 | 0.00 | 0.00 | 90 | 1015.7 |
| 20260901045051 | 71 | 231 | 0.0 | 0.0 | 0.00 | 0.00 | 0.00 | 90 | 1015.7 |
| 20260901044111 | 71 | 231 | 0.0 | 0.0 | 0.00 | 0.00 | 0.00 | 90 | 1015.6 |
| 20260901043049 | 72 | 231 | 0.0 | 0.0 | 0.00 | 0.00 | 0.00 | 89 | 1015.6 |
| 20260901042104 | 72 | 231 | 0.0 | 0.0 | 0.00 | 0.00 | 0.00 | 89 | 1015.6 |
| 20260901041105 | 72 | 231 | 0.0 | 0.0 | 0.00 | 0.00 | 0.00 | 88 | 1015.6 |
| 20260901040106 | 72 | 231 | 0.0 | 0.0 | 0.00 | 0.00 | 0.00 | 88 | 1015.6 |
| 20260901035113 | 73 | 231 | 0.0 | 0.0 | 0.00 | 0.00 | 0.00 | 88 | 1015.7 |
| 20260901034111 | 73 | 231 | 0.0 | 0.0 | 0.00 | 0.00 | 0.00 | 88 | 1015.7 |
| 20260901033131 | 73 | 231 | 0.0 | 0.0 | 0.00 | 0.00 | 0.00 | 88 | 1015.7 |
| 20260901032117 | 73 | 231 | 0.0 | 0.0 | 0.00 | 0.00 | 0.00 | 87 | 1015.7 |
| 20260901031112 | 74 | 231 | 0.0 | 0.0 | 0.00 | 0.00 | 0.00 | 88 | 1015.6 |
| 20260901030113 | 74 | 231 | 0.0 | 0.0 | 0.00 | 0.00 | 0.00 | 87 | 1015.5 |
| 20260901025055 | 74 | 231 | 0.0 | 0.0 | 0.00 | 0.00 | 0.00 | 87 | 1015.3 |
| 20260901024033 | 74 | 231 | 0.0 | 0.0 | 0.00 | 0.00 | 0.00 | 88 | 1015.2 |
| 20260901023015 | 75 | 231 | 0.0 | 0.0 | 0.00 | 0.00 | 0.00 | 87 | 1015.1 |
| 20260901021950 | 75 | 231 | 0.0 | 0.0 | 0.00 | 0.00 | 0.00 | 86 | 1014.9 |
| 20260901021005 | 75 | 231 | 0.0 | 0.0 | 0.00 | 0.00 | 0.00 | 86 | 1014.7 |
| 20260901014856 | 77 | 231 | 0.0 | 0.0 | 0.00 | 0.00 | 0.00 | 85 | 1014.5 |
| 20260901013913 | 77 | 231 | 0.0 | 0.0 | 0.00 | 0.00 | 0.00 | 83 | 1014.3 |
| 20260901011813 | 79 | 231 | 0.0 | 0.0 | 0.00 | 0.00 | 0.00 | 81 | 1014.0 |
| 20260901010754 | 80 | 231 | 0.0 | 0.0 | 0.00 | 0.00 | 0.00 | 80 | 1013.9 |
| 20260901005726 | 81 | 231 | 0.0 | 0.0 | 0.00 | 0.00 | 0.00 | 78 | 1013.8 |
| 20260901004654 | 83 | 231 | 0.0 | 0.0 | 0.00 | 0.00 | 0.00 | 75 | 1013.8 |
| 20260901003649 | 84 | 231 | 0.0 | 0.0 | 0.00 | 0.00 | 0.00 | 72 | 1013.7 |
| 20260901001455 | 88 | 231 | 0.0 | 0.0 | 0.00 | 0.00 | 0.00 | 66 | 1013.7 |
| 20260831235314 | 91 | 231 | 0.0 | 0.0 | 0.00 | 0.00 | 0.00 | 59 | 1013.6 |
| 20260831234300 | 92 | 231 | 0.0 | 0.0 | 0.00 | 0.00 | 0.00 | 57 | 1013.6 |
| 20260831233249 | 94 | 209 | 0.0 | 0.0 | 0.00 | 0.00 | 0.00 | 51 | 1013.5 |
| 20260831230019 | 96 | 244 | 0.0 | 2.0 | 0.00 | 0.00 | 0.00 | 50 | 1013.6 |
| 20260831225033 | 97 | 311 | 0.0 | 2.0 | 0.00 | 0.00 | 0.00 | 46 | 1013.6 |
| 20260831222845 | 96 | 149 | 1.0 | 6.0 | 0.00 | 0.00 | 0.00 | 47 | 1013.6 |
| 20260831221822 | 96 | 196 | 0.0 | 3.0 | 0.00 | 0.00 | 0.00 | 43 | 1013.7 |
| 20260831220833 | 96 | 148 | 2.0 | 6.0 | 0.00 | 0.00 | 0.00 | 46 | 1013.8 |
| 20260831215813 | 97 | 172 | 1.0 | 5.0 | 0.00 | 0.00 | 0.00 | 44 | 1013.8 |
| 20260831214810 | 97 | 203 | 0.0 | 4.0 | 0.00 | 0.00 | 0.00 | 43 | 1013.8 |
| 20260831213816 | 97 | 195 | 1.0 | 5.0 | 0.00 | 0.00 | 0.00 | 45 | 1013.9 |
| 20260831212814 | 97 | 169 | 1.0 | 5.0 | 0.00 | 0.00 | 0.00 | 43 | 1013.9 |
| 20260831211757 | 97 | 221 | 1.0 | 0.0 | 0.00 | 0.00 | 0.00 | 42 | 1014.0 |
| 20260831210811 | 97 | 219 | 0.0 | 1.0 | 0.00 | 0.00 | 0.00 | 48 | 1014.0 |
| 20260831204704 | 97 | 304 | 1.0 | 5.0 | 0.00 | 0.00 | 0.00 | 51 | 1014.4 |
| 20260831202601 | 97 | 253 | 0.0 | 3.0 | 0.00 | 0.00 | 0.00 | 47 | 1014.6 |
| 20260831201527 | 97 | 123 | 0.0 | 6.0 | 0.00 | 0.00 | 0.00 | 43 | 1014.6 |
| 20260831200547 | 97 | 131 | 0.0 | 6.0 | 0.00 | 0.00 | 0.00 | 42 | 1014.7 |
| 20260831195540 | 97 | 312 | 1.0 | 8.0 | 0.00 | 0.00 | 0.00 | 48 | 1014.9 |
| 20260831193359 | 96 | 68 | 2.0 | 6.0 | 0.00 | 0.00 | 0.00 | 47 | 1015.0 |
| 20260831192405 | 96 | 209 | 1.0 | 8.0 | 0.00 | 0.00 | 0.00 | 46 | 1015.2 |
| 20260831191424 | 96 | 153 | 1.0 | 10.0 | 0.00 | 0.00 | 0.00 | 45 | 1015.1 |
| 20260831190410 | 96 | 314 | 1.0 | 10.0 | 0.00 | 0.00 | 0.00 | 47 | 1015.3 |
| 20260831184222 | 96 | 221 | 0.0 | 5.0 | 0.00 | 0.00 | 0.00 | 48 | 1015.7 |
| 20260831183239 | 95 | 287 | 0.0 | 0.0 | 0.00 | 0.00 | 0.00 | 49 | 1015.8 |
| 20260831181119 | 95 | 271 | 1.0 | 4.0 | 0.00 | 0.00 | 0.00 | 49 | 1016.1 |
| 20260831180105 | 95 | 152 | 0.0 | 3.0 | 0.00 | 0.00 | 0.00 | 53 | 1016.2 |
| 20260831175048 | 95 | 227 | 0.0 | 3.0 | 0.00 | 0.00 | 0.00 | 56 | 1016.3 |
| 20260831174107 | 94 | 286 | 0.0 | 5.0 | 0.00 | 0.00 | 0.00 | 52 | 1016.4 |
| 20260831173058 | 94 | 309 | 0.0 | 4.0 | 0.00 | 0.00 | 0.00 | 54 | 1016.4 |
| 20260831172038 | 93 | 328 | 1.0 | 6.0 | 0.00 | 0.00 | 0.00 | 56 | 1016.6 |
| 20260831171100 | 92 | 244 | 0.0 | 5.0 | 0.00 | 0.00 | 0.00 | 59 | 1016.8 |
| 20260831170052 | 92 | 271 | 0.0 | 0.0 | 0.00 | 0.00 | 0.00 | 60 | 1016.8 |